Jesup, GA

12:13 AM EDT on October 24, 2017 (GMT -0400)
Jesup-Wayne County

Weather History for KJES - November, 2013

Change the Weather History Date:

Wednesday, November 13, 2013

  Actual Average (KLHW) Record (KLHW)
Temperature  
Mean Temperature 40 °F -  
Max Temperature 50 °F 70 °F 83 °F (1972)
Min Temperature 30 °F 46 °F 30 °F (1968)
Degree Days  
Heating Degree Days 25    
Moisture  
Dew Point 29 °F    
Average Humidity 69    
Maximum Humidity 100    
Minimum Humidity 37    
Precipitation  
Precipitation 0.00 in - - ()
Sea Level Pressure  
Sea Level Pressure 30.44 in    
Wind  
Wind Speed 11 mph (NE)    
Max Wind Speed 20 mph    
Max Gust Speed 32 mph    
Visibility 10 miles    
Events      
Averages and records for this station are not official NWS values.
T = Trace of Precipitation, MM = Missing Value Source: NWS Daily Summary

Daily Weather History Graph

Daily Weather History Graph

Search for Another Location

Airport or City:

Trip Planner

Search our weather history database for the weather conditions in past years. The results will help you decide how hot, cold, wet, or windy it might be!

Date:

Astronomy

Nov. 13, 2013 Rise Set
Actual Time 6:53 AM EST 5:29 PM EST
Civil Twilight 6:28 AM EST 5:55 PM EST
Nautical Twilight 5:58 AM EST 6:24 PM EST
Astronomical Twilight 5:30 AM EST 6:53 PM EST
Moon 3:03 PM EST (11/13) 2:59 AM EST (11/13)
Length of Visible Light 11h 27m
Length of Day
10h 35m
Waxing Gibbous, 84% of the Moon is Illuminated
Nov 13
Waxing Gibbous
Nov 17
Full
Nov 25
Last Quarter
Dec 2
New
Dec 9
First Quarter

Hourly Weather History & Observations

Time (EST) Temp. Windchill Dew Point Humidity Pressure Visibility Wind Dir Wind Speed Gust Speed Precip Events Conditions
12:15 AM 48.2 °F - 35.6 °F 62% 30.28 in 10.0 mi NE 13.8 mph 24.2 mph N/A   Clear
12:35 AM 46.4 °F 39.8 °F 35.6 °F 66% 30.29 in 10.0 mi NNE 16.1 mph 32.2 mph N/A   Clear
12:55 AM 44.6 °F 37.2 °F 33.8 °F 66% 30.29 in 10.0 mi NE 17.3 mph 26.5 mph N/A   Clear
1:15 AM 44.6 °F 38.1 °F 33.8 °F 66% 30.31 in 10.0 mi NE 13.8 mph 23.0 mph N/A   Scattered Clouds
1:35 AM 42.8 °F 35.1 °F 33.8 °F 70% 30.30 in 10.0 mi NE 16.1 mph 26.5 mph N/A   Scattered Clouds
1:55 AM 42.8 °F 35.8 °F 33.8 °F 70% 30.32 in 10.0 mi NE 13.8 mph 19.6 mph N/A   Clear
2:15 AM 42.8 °F 35.1 °F 33.8 °F 70% 30.34 in 10.0 mi NNE 16.1 mph 25.3 mph N/A   Clear
2:35 AM 41.0 °F 33.5 °F 33.8 °F 76% 30.34 in 10.0 mi NE 13.8 mph 26.5 mph N/A   Scattered Clouds
2:55 AM 41.0 °F 33.1 °F 33.8 °F 76% 30.34 in 10.0 mi NE 15.0 mph 24.2 mph N/A   Mostly Cloudy
3:15 AM 41.0 °F 33.9 °F 33.8 °F 76% 30.35 in 10.0 mi NE 12.7 mph 23.0 mph N/A   Overcast
3:35 AM 41.0 °F 33.9 °F 33.8 °F 76% 30.36 in 10.0 mi NE 12.7 mph 17.3 mph N/A   Overcast
3:55 AM 39.2 °F 30.8 °F 33.8 °F 81% 30.36 in 10.0 mi NE 15.0 mph 24.2 mph N/A   Overcast
4:15 AM 39.2 °F 32.0 °F 32.0 °F 75% 30.37 in 10.0 mi ENE 11.5 mph 20.7 mph N/A   Overcast
4:35 AM 37.4 °F 28.9 °F 32.0 °F 81% 30.38 in 10.0 mi ENE 13.8 mph 20.7 mph N/A   Overcast
4:55 AM 37.4 °F 30.8 °F 32.0 °F 81% 30.39 in 10.0 mi NE 9.2 mph 25.3 mph N/A   Overcast
5:15 AM 37.4 °F 30.3 °F 32.0 °F 81% 30.40 in 10.0 mi NE 10.4 mph 20.7 mph N/A   Overcast
5:35 AM 37.4 °F 30.3 °F 32.0 °F 81% 30.41 in 10.0 mi NNE 10.4 mph - N/A   Overcast
5:55 AM 35.6 °F 28.0 °F 30.2 °F 81% 30.42 in 10.0 mi NE 10.4 mph - N/A   Overcast
6:15 AM 35.6 °F 28.0 °F 30.2 °F 81% 30.44 in 10.0 mi NNE 10.4 mph - N/A   Overcast
6:35 AM 35.6 °F 27.1 °F 30.2 °F 81% 30.44 in 10.0 mi NE 12.7 mph 18.4 mph N/A   Mostly Cloudy
6:55 AM 33.8 °F 25.3 °F 30.2 °F 87% 30.45 in 10.0 mi NE 11.5 mph 21.9 mph N/A   Clear
7:15 AM 33.8 °F 27.0 °F 28.4 °F 81% 30.46 in 10.0 mi NE 8.1 mph - N/A   Clear
7:35 AM 33.8 °F 26.4 °F 28.4 °F 81% 30.47 in 10.0 mi NE 9.2 mph 19.6 mph N/A   Clear
7:55 AM 35.6 °F 27.5 °F 28.4 °F 75% 30.48 in 10.0 mi NE 11.5 mph 21.9 mph N/A   Clear
8:15 AM 35.6 °F 27.5 °F 28.4 °F 75% 30.48 in 10.0 mi ENE 11.5 mph 24.2 mph N/A   Clear
8:35 AM 35.6 °F 28.0 °F 28.4 °F 75% 30.49 in 10.0 mi NE 10.4 mph 16.1 mph N/A   Clear
8:55 AM 37.4 °F 27.2 °F 26.6 °F 65% 30.49 in 10.0 mi ENE 19.6 mph 23.0 mph N/A   Clear
9:15 AM 37.4 °F 28.9 °F 26.6 °F 65% 30.49 in 10.0 mi ENE 13.8 mph 21.9 mph N/A   Clear
9:35 AM 39.2 °F 31.2 °F 26.6 °F 61% 30.49 in 10.0 mi East 13.8 mph 23.0 mph N/A   Clear
9:55 AM 41.0 °F 33.9 °F 26.6 °F 57% 30.50 in 10.0 mi ENE 12.7 mph 20.7 mph N/A   Clear
10:15 AM 41.0 °F 33.5 °F 26.6 °F 57% 30.50 in 10.0 mi ENE 13.8 mph 18.4 mph N/A   Clear
10:35 AM 42.8 °F 37.0 °F 26.6 °F 53% 30.51 in 10.0 mi NE 10.4 mph 17.3 mph N/A   Clear
10:55 AM 42.8 °F 37.0 °F 24.8 °F 49% 30.50 in 10.0 mi East 10.4 mph 18.4 mph N/A   Clear
11:15 AM 44.6 °F 38.1 °F 26.6 °F 49% 30.51 in 10.0 mi NE 13.8 mph 19.6 mph N/A   Clear
11:35 AM 44.6 °F 39.2 °F 24.8 °F 46% 30.51 in 10.0 mi ENE 10.4 mph - N/A   Clear
11:55 AM 44.6 °F 38.4 °F 26.6 °F 49% 30.50 in 10.0 mi NE 12.7 mph - N/A   Clear
12:15 PM 46.4 °F 42.4 °F 24.8 °F 43% 30.49 in 10.0 mi NNE 8.1 mph 17.3 mph N/A   Clear
12:35 PM 46.4 °F 40.7 °F 24.8 °F 43% 30.47 in 10.0 mi NNE 12.7 mph 17.3 mph N/A   Clear
12:55 PM 46.4 °F 41.9 °F 26.6 °F 46% 30.47 in 10.0 mi NNE 9.2 mph - N/A   Clear
1:15 PM 50.0 °F - 26.6 °F 40% 30.47 in 10.0 mi NNE 6.9 mph - N/A   Clear
1:35 PM 48.2 °F - 24.8 °F 40% 30.46 in 10.0 mi ENE 10.4 mph 17.3 mph N/A   Clear
1:55 PM 50.0 °F - 24.8 °F 37% 30.46 in 10.0 mi ENE 12.7 mph - N/A   Clear
2:15 PM 50.0 °F - 24.8 °F 37% 30.45 in 10.0 mi NE 9.2 mph - N/A   Clear
2:35 PM 50.0 °F - 24.8 °F 37% 30.45 in 10.0 mi NNE 9.2 mph - N/A   Clear
2:55 PM 50.0 °F - 24.8 °F 37% 30.44 in 10.0 mi North 6.9 mph - N/A   Clear
3:15 PM 50.0 °F - 26.6 °F 40% 30.44 in 10.0 mi NE 6.9 mph - N/A   Clear
3:35 PM 50.0 °F - 24.8 °F 37% 30.45 in 10.0 mi ENE 5.8 mph - N/A   Clear
3:55 PM 50.0 °F - 26.6 °F 40% 30.45 in 10.0 mi ENE 8.1 mph - N/A   Clear
4:15 PM 50.0 °F - 26.6 °F 40% 30.45 in 10.0 mi NE 8.1 mph - N/A   Clear
4:35 PM 48.2 °F - 26.6 °F 43% 30.45 in 10.0 mi NNE 5.8 mph - N/A   Scattered Clouds
4:55 PM 46.4 °F 43.5 °F 26.6 °F 46% 30.45 in 10.0 mi NE 5.8 mph - N/A   Clear
5:15 PM 46.4 °F 44.3 °F 26.6 °F 46% 30.45 in 10.0 mi NE 4.6 mph - N/A   Clear
5:35 PM 44.6 °F - 28.4 °F 53% 30.46 in 10.0 mi Calm Calm - N/A   Clear
5:55 PM 41.0 °F - 30.2 °F 65% 30.47 in 10.0 mi Calm Calm - N/A   Clear
6:15 PM 37.4 °F - 32.0 °F 81% 30.47 in 10.0 mi Calm Calm - N/A   Clear
6:35 PM 37.4 °F 34.9 °F 32.0 °F 81% 30.47 in 10.0 mi NNE 3.5 mph - N/A   Clear
6:55 PM 41.0 °F 38.0 °F 28.4 °F 61% 30.47 in 10.0 mi NNE 4.6 mph - N/A   Clear
7:15 PM 35.6 °F - 32.0 °F 87% 30.47 in 10.0 mi Calm Calm - N/A   Clear
7:35 PM 33.8 °F - 30.2 °F 87% 30.47 in 10.0 mi Calm Calm - N/A   Clear
7:55 PM 32.0 °F - 32.0 °F 100% 30.48 in 10.0 mi Calm Calm - N/A   Clear
8:15 PM 32.0 °F - 32.0 °F 100% 30.48 in 10.0 mi Calm Calm - N/A   Clear
8:35 PM 32.0 °F - 32.0 °F 100% 30.48 in 10.0 mi Calm Calm - N/A   Clear
8:55 PM 32.0 °F - 32.0 °F 100% 30.49 in 10.0 mi Calm Calm - N/A   Clear
9:15 PM 32.0 °F 28.7 °F 32.0 °F 100% 30.49 in 10.0 mi NE 3.5 mph - N/A   Clear
9:35 PM 30.2 °F - 30.2 °F 100% 30.49 in 10.0 mi Calm Calm - N/A   Clear
9:55 PM 32.0 °F - 30.2 °F 93% 30.50 in 10.0 mi Calm Calm - N/A   Clear
10:15 PM 32.0 °F 28.7 °F 30.2 °F 93% 30.50 in 10.0 mi NE 3.5 mph - N/A   Clear
10:35 PM 32.0 °F - 30.2 °F 93% 30.50 in 10.0 mi Calm Calm - N/A   Clear
10:55 PM 32.0 °F 26.4 °F 32.0 °F 100% 30.49 in 10.0 mi NE 5.8 mph - N/A   Clear
11:15 PM 30.2 °F 26.7 °F 30.2 °F 100% 30.49 in 10.0 mi ENE 3.5 mph - N/A   Clear
11:35 PM 32.0 °F 27.5 °F 30.2 °F 93% 30.48 in 10.0 mi ENE 4.6 mph - N/A   Clear
11:55 PM 32.0 °F 28.7 °F 30.2 °F 93% 30.48 in 10.0 mi NE 3.5 mph - N/A   Clear